• In Russia
  • List of Countries
  • For 7 days
  • Water Temperature
  • Satellite Maps
  • Weather Map
  • Weather Widgets
  • user-avatar
    Login

    Hourly Weather Linz

    Today, 20 June, Thursday

    Time Temperature Precipitation Wind Pressure Humidity
    00:00 +16°C° 0 mm 1 mps 731 mmHg 86%
    01:00 +16°C° 0 mm 1 mps 731 mmHg 86%
    02:00 +15°C° 0 mm 1 mps 731 mmHg 86%
    03:00 +15°C° 0 mm 1 mps 730 mmHg 86%
    04:00 +14°C° 0 mm 0 mps 730 mmHg 86%
    05:00 +16°C° 0 mm 1 mps 731 mmHg 84%
    06:00 +19°C° 0 mm 1 mps 731 mmHg 83%
    07:00 +20°C° 0 mm 2 mps 732 mmHg 86%
    08:00 +21°C° 0.4 mm 2 mps 732 mmHg 83%
    09:00 +23°C° 0.4 mm 2 mps 731 mmHg 79%
    10:00 +24°C° 0.4 mm 2 mps 731 mmHg 75%
    11:00 +25°C° 0.7 mm 2 mps 731 mmHg 71%
    12:00 +26°C° 0.7 mm 1 mps 731 mmHg 66%
    13:00 +27°C° 0.7 mm 1 mps 731 mmHg 61%
    14:00 +28°C° 0.1 mm 1 mps 731 mmHg 59%
    15:00 +28°C° 0.1 mm 1 mps 731 mmHg 56%
    16:00 +28°C° 0.1 mm 1 mps 731 mmHg 54%
    17:00 +26°C° 0.5 mm 2 mps 731 mmHg 64%
    18:00 +24°C° 0.5 mm 3 mps 731 mmHg 74%
    19:00 +21°C° 0.5 mm 4 mps 732 mmHg 83%
    20:00 +20°C° 0.7 mm 4 mps 732 mmHg 87%
    21:00 +18°C° 0.7 mm 3 mps 732 mmHg 91%
    22:00 +17°C° 0.7 mm 3 mps 733 mmHg 95%
    23:00 +17°C° 0.1 mm 2 mps 733 mmHg 95%

    Tomorrow, 21 June, Friday

    Time Temperature Precipitation Wind Pressure Humidity
    00:00 +17°C° 0.1 mm 2 mps 733 mmHg 95%
    01:00 +18°C° 0.1 mm 1 mps 734 mmHg 95%
    02:00 +18°C° 0 mm 1 mps 734 mmHg 95%
    03:00 +18°C° 0 mm 1 mps 734 mmHg 94%
    04:00 +18°C° 0 mm 1 mps 734 mmHg 94%
    05:00 +17°C° 0 mm 0 mps 734 mmHg 91%
    06:00 +17°C° 0 mm 0 mps 734 mmHg 89%
    07:00 +18°C° 0 mm 0 mps 734 mmHg 86%
    08:00 +22°C° 0 mm 1 mps 734 mmHg 80%
    09:00 +23°C° 0 mm 1 mps 734 mmHg 73%
    10:00 +24°C° 0 mm 2 mps 734 mmHg 67%
    11:00 +25°C° 0 mm 2 mps 734 mmHg 64%
    12:00 +26°C° 0 mm 2 mps 734 mmHg 62%
    13:00 +26°C° 0 mm 2 mps 734 mmHg 59%
    14:00 +27°C° 0.1 mm 2 mps 734 mmHg 58%
    15:00 +27°C° 0.1 mm 1 mps 734 mmHg 58%
    16:00 +27°C° 0.1 mm 1 mps 734 mmHg 58%
    17:00 +26°C° 0.4 mm 1 mps 734 mmHg 66%
    18:00 +24°C° 0.4 mm 1 mps 734 mmHg 75%
    19:00 +23°C° 0.4 mm 1 mps 734 mmHg 83%
    20:00 +22°C° 0.5 mm 1 mps 734 mmHg 85%
    21:00 +21°C° 0.5 mm 1 mps 735 mmHg 88%
    22:00 +19°C° 0.5 mm 1 mps 735 mmHg 90%
    23:00 +19°C° 0.8 mm 1 mps 735 mmHg 92%

    Day after tomorrow, 22 June, Saturday

    Time Temperature Precipitation Wind Pressure Humidity
    00:00 +19°C° 0.8 mm 1 mps 735 mmHg 93%
    01:00 +18°C° 0.8 mm 1 mps 735 mmHg 94%
    02:00 +18°C° 1.1 mm 1 mps 735 mmHg 95%
    03:00 +18°C° 1.1 mm 1 mps 735 mmHg 96%
    04:00 +18°C° 1.1 mm 1 mps 734 mmHg 97%
    05:00 +18°C° 0.5 mm 1 mps 734 mmHg 96%
    06:00 +18°C° 0.5 mm 2 mps 735 mmHg 95%
    07:00 +18°C° 0.5 mm 2 mps 735 mmHg 94%
    08:00 +19°C° 0.4 mm 3 mps 734 mmHg 91%
    09:00 +20°C° 0.4 mm 4 mps 734 mmHg 87%
    10:00 +21°C° 0.4 mm 5 mps 734 mmHg 84%
    11:00 +22°C° 1.1 mm 5 mps 734 mmHg 82%
    12:00 +23°C° 1.1 mm 5 mps 734 mmHg 80%
    13:00 +25°C° 1.1 mm 5 mps 733 mmHg 77%
    14:00 +23°C° 1.3 mm 5 mps 733 mmHg 79%
    15:00 +23°C° 1.3 mm 4 mps 733 mmHg 81%
    16:00 +23°C° 1.3 mm 4 mps 733 mmHg 83%
    17:00 +22°C° 2.4 mm 4 mps 733 mmHg 87%
    18:00 +20°C° 2.4 mm 4 mps 733 mmHg 90%
    19:00 +19°C° 2.4 mm 4 mps 733 mmHg 94%
    20:00 +19°C° 1.4 mm 3 mps 733 mmHg 95%
    21:00 +18°C° 1.4 mm 3 mps 733 mmHg 96%
    22:00 +18°C° 1.4 mm 3 mps 733 mmHg 96%
    23:00 +18°C° 0.4 mm 2 mps 733 mmHg 96%

    23 June, Sunday

    Time Temperature Precipitation Wind Pressure Humidity
    00:00 +18°C° 0.4 mm 2 mps 733 mmHg 96%
    01:00 +18°C° 0.4 mm 2 mps 733 mmHg 96%
    02:00 +19°C° 0.3 mm 1 mps 734 mmHg 96%
    03:00 +19°C° 0.3 mm 1 mps 734 mmHg 95%
    04:00 +19°C° 0.3 mm 1 mps 734 mmHg 95%
    05:00 +19°C° 0.2 mm 1 mps 734 mmHg 95%
    06:00 +19°C° 0.2 mm 1 mps 734 mmHg 95%
    07:00 +19°C° 0.2 mm 1 mps 735 mmHg 95%
    08:00 +20°C° 0.2 mm 1 mps 735 mmHg 93%
    09:00 +20°C° 0.2 mm 1 mps 735 mmHg 91%
    10:00 +21°C° 0.2 mm 1 mps 735 mmHg 90%
    11:00 +20°C° 0.4 mm 2 mps 735 mmHg 89%
    12:00 +20°C° 0.4 mm 2 mps 735 mmHg 89%
    13:00 +20°C° 0.4 mm 3 mps 735 mmHg 88%
    14:00 +21°C° 0.1 mm 3 mps 735 mmHg 86%
    15:00 +21°C° 0.1 mm 2 mps 735 mmHg 83%
    16:00 +23°C° 0.1 mm 2 mps 735 mmHg 80%
    17:00 +21°C° 0.1 mm 2 mps 736 mmHg 83%
    18:00 +22°C° 0.1 mm 1 mps 736 mmHg 85%
    19:00 +21°C° 0.1 mm 1 mps 736 mmHg 88%
    20:00 +21°C° 0 mm 1 mps 737 mmHg 90%
    21:00 +20°C° 0 mm 1 mps 737 mmHg 92%
    22:00 +19°C° 0 mm 1 mps 737 mmHg 94%
    23:00 +18°C° 0 mm 1 mps 738 mmHg 94%

    24 June, Monday

    Time Temperature Precipitation Wind Pressure Humidity
    00:00 +18°C° 0 mm 1 mps 738 mmHg 94%
    01:00 +18°C° 0 mm 1 mps 738 mmHg 95%
    02:00 +16°C° 0 mm 1 mps 738 mmHg 95%
    03:00 +16°C° 0 mm 1 mps 737 mmHg 95%
    04:00 +16°C° 0 mm 1 mps 737 mmHg 95%
    05:00 +17°C° 0 mm 2 mps 738 mmHg 92%
    06:00 +18°C° 0 mm 2 mps 738 mmHg 89%
    07:00 +19°C° 0 mm 2 mps 738 mmHg 87%
    08:00 +21°C° 0 mm 2 mps 738 mmHg 82%
    09:00 +22°C° 0 mm 3 mps 738 mmHg 77%
    10:00 +25°C° 0 mm 3 mps 738 mmHg 72%
    11:00 +26°C° 0 mm 4 mps 738 mmHg 70%
    12:00 +26°C° 0 mm 4 mps 738 mmHg 68%
    13:00 +27°C° 0 mm 4 mps 738 mmHg 65%
    14:00 +27°C° 0 mm 4 mps 738 mmHg 66%
    15:00 +27°C° 0 mm 4 mps 738 mmHg 68%
    16:00 +27°C° 0 mm 4 mps 738 mmHg 69%
    17:00 +26°C° 0 mm 4 mps 738 mmHg 74%
    18:00 +25°C° 0 mm 3 mps 738 mmHg 78%
    19:00 +24°C° 0 mm 3 mps 738 mmHg 83%
    20:00 +21°C° 0 mm 3 mps 739 mmHg 86%
    21:00 +20°C° 0 mm 2 mps 739 mmHg 90%
    22:00 +19°C° 0 mm 2 mps 739 mmHg 93%
    23:00 +18°C° 0 mm 2 mps 739 mmHg 93%

    25 June, Tuesday

    Time Temperature Precipitation Wind Pressure Humidity
    00:00 +18°C° 0 mm 2 mps 739 mmHg 94%
    01:00 +18°C° 0 mm 2 mps 739 mmHg 94%
    02:00 +17°C° 0 mm 2 mps 739 mmHg 95%
    03:00 +17°C° 0 mm 2 mps 739 mmHg 95%
    04:00 +17°C° 0 mm 2 mps 739 mmHg 95%
    05:00 +18°C° 0 mm 2 mps 739 mmHg 92%
    06:00 +19°C° 0 mm 2 mps 739 mmHg 89%
    07:00 +21°C° 0 mm 2 mps 739 mmHg 86%
    08:00 +22°C° 0 mm 3 mps 739 mmHg 81%
    09:00 +25°C° 0 mm 3 mps 739 mmHg 76%
    10:00 +26°C° 0 mm 3 mps 739 mmHg 72%
    11:00 +27°C° 0 mm 3 mps 739 mmHg 69%
    12:00 +28°C° 0 mm 3 mps 739 mmHg 66%
    13:00 +30°C° 0 mm 3 mps 739 mmHg 63%
    14:00 +30°C° 0 mm 3 mps 739 mmHg 64%
    15:00 +30°C° 0 mm 3 mps 739 mmHg 64%
    16:00 +30°C° 0 mm 3 mps 738 mmHg 65%
    17:00 +29°C° 0 mm 3 mps 739 mmHg 71%
    18:00 +28°C° 0 mm 3 mps 739 mmHg 76%
    19:00 +27°C° 0 mm 2 mps 739 mmHg 82%
    20:00 +25°C° 0 mm 2 mps 739 mmHg 85%
    21:00 +24°C° 0 mm 2 mps 740 mmHg 88%
    22:00 +22°C° 0 mm 1 mps 740 mmHg 91%
    23:00 +22°C° 0 mm 1 mps 740 mmHg 92%
    Show more